Change the Weather History Date:

Monday, November 24, 2014

  Actual Average Record
Temperature  
Mean Temperature 43 °F 26 °F  
Max Temperature 51 °F 32 °F 51 °F (2014)
Min Temperature 34 °F 20 °F 6 °F (1996)
Degree Days  
Heating Degree Days 22    
Month to date heating degree days 878  
Since 1 July heating degree days 1999  
Cooling Degree Days 0    
Month to date cooling degree days 0  
Year to date cooling degree days 139  
Moisture  
Dew Point 41 °F    
Average Humidity 96    
Maximum Humidity 100    
Minimum Humidity 86    
Precipitation  
Precipitation 0.28 in 0.10 in 0.49 in (2004)
Month to date precipitation 1.31 2.34  
Year to date precipitation 32.00 30.46  
Sea Level Pressure  
Sea Level Pressure 29.65 in    
Wind  
Wind Speed 15 mph (SSE)    
Max Wind Speed 31 mph    
Max Gust Speed 42 mph    
Visibility 4 miles    
Events Fog , Rain    
T = Trace of Precipitation, MM = Missing Value Source: NWS Daily Summary

Daily Weather History Graph

Daily Weather History Graph

Search for Another Location

Airport or City:

Trip Planner

Search our weather history database for the weather conditions in past years. The results will help you decide how hot, cold, wet, or windy it might be!

Date:

Astronomy

Nov. 24, 2014 Rise Set
Actual Time 6:50 AM EST 3:49 PM EST
Civil Twilight 6:15 AM EST 4:23 PM EST
Nautical Twilight 5:38 AM EST 5:01 PM EST
Astronomical Twilight 5:01 AM EST 5:37 PM EST
Moon 8:38 AM EST (11/24) 6:08 PM EST (11/24)
Length of Visible Light 10h 07m
Length of Day
8h 59m
Waxing Crescent, 6% of the Moon is Illuminated
Nov 24
Waxing Crescent
Nov 29
First Quarter
Dec 6
Full
Dec 14
Last Quarter
Dec 21
New

Hourly Weather History & Observations

Time (EST) Temp. Windchill Dew Point Humidity Pressure Visibility Wind Dir Wind Speed Gust Speed Precip Events Conditions
12:53 AM 34.0 °F 28.0 °F 30.9 °F 89% 30.09 in 10.0 mi SSE 6.9 mph - N/A   Overcast
1:53 AM 35.1 °F 28.6 °F 32.0 °F 89% 30.08 in 10.0 mi SSE 8.1 mph - N/A   Overcast
2:53 AM 35.1 °F 27.9 °F 32.0 °F 89% 30.07 in 10.0 mi SSE 9.2 mph - N/A   Overcast
3:53 AM 34.0 °F 27.2 °F 32.0 °F 92% 30.03 in 10.0 mi SE 8.1 mph - N/A   Overcast
4:53 AM 35.1 °F 26.9 °F 32.0 °F 89% 30.01 in 10.0 mi SE 11.5 mph - N/A   Overcast
5:53 AM 36.0 °F 26.3 °F 32.0 °F 86% 29.99 in 10.0 mi SSE 16.1 mph - N/A   Overcast
6:53 AM 36.0 °F 27.1 °F 32.0 °F 86% 29.96 in 10.0 mi SE 13.8 mph - N/A   Overcast
7:53 AM 37.0 °F 26.7 °F 34.0 °F 89% 29.94 in 10.0 mi SSE 19.6 mph 27.6 mph N/A   Overcast
8:26 AM 37.9 °F 27.6 °F 35.1 °F 89% 29.91 in 10.0 mi SSE 20.7 mph 29.9 mph N/A   Overcast
8:53 AM 37.9 °F 27.9 °F 35.1 °F 89% 29.93 in 10.0 mi SSE 19.6 mph - N/A   Overcast
9:53 AM 37.9 °F 27.3 °F 37.0 °F 97% 29.90 in 6.0 mi SSE 21.9 mph 27.6 mph 0.00 in Rain Light Rain
10:09 AM 37.9 °F 28.5 °F 37.0 °F 97% 29.84 in 2.0 mi SSE 17.3 mph - 0.03 in Rain Rain
10:17 AM 37.9 °F 28.5 °F 37.0 °F 97% 29.84 in 2.0 mi SSE 17.3 mph 26.5 mph 0.05 in Rain Rain
10:25 AM 37.9 °F 29.2 °F 37.0 °F 97% 29.82 in 1.5 mi SE 15.0 mph - 0.05 in Rain Light Rain
10:32 AM 37.9 °F 28.9 °F 37.0 °F 97% 29.80 in 1.2 mi SE 16.1 mph 24.2 mph 0.06 in Rain Light Rain
10:39 AM 37.9 °F 27.9 °F 37.0 °F 97% 29.79 in 1.8 mi SE 19.6 mph 24.2 mph 0.07 in Rain Rain
10:49 AM 37.4 °F 28.5 °F 37.4 °F 100% 29.78 in 1.2 mi SSE 15.0 mph - 0.09 in Rain Rain
10:53 AM 37.9 °F 29.6 °F 37.9 °F 100% 29.81 in 1.2 mi SSE 13.8 mph - 0.10 in Rain Rain
11:02 AM 37.9 °F 29.2 °F 37.9 °F 100% 29.77 in 0.8 mi SSE 15.0 mph - 0.02 in Rain Rain
11:10 AM 37.9 °F 28.2 °F 37.9 °F 100% 29.75 in 1.5 mi SE 18.4 mph - 0.03 in Rain Light Rain
11:18 AM 39.0 °F 29.3 °F 37.9 °F 96% 29.73 in 2.0 mi SE 19.6 mph 27.6 mph 0.04 in Rain Rain
11:29 AM 39.0 °F 28.3 °F 37.9 °F 96% 29.71 in 5.0 mi SE 24.2 mph 31.1 mph 0.06 in Rain Rain
11:53 AM 39.9 °F 30.0 °F 39.0 °F 97% 29.69 in 3.0 mi SE 21.9 mph 28.8 mph 0.07 in Rain Light Rain
12:45 PM 41.0 °F 31.4 °F 39.9 °F 96% 29.62 in 1.8 mi SSE 21.9 mph 29.9 mph 0.02 in Rain Light Rain
12:49 PM 41.0 °F 31.6 °F 39.2 °F 93% 29.62 in 1.2 mi SSE 20.7 mph 28.8 mph 0.02 in Rain Light Rain
12:53 PM 41.0 °F 31.9 °F 39.9 °F 96% 29.64 in 0.8 mi SSE 19.6 mph 28.8 mph 0.02 in Rain Light Rain
1:15 PM 42.1 °F 32.1 °F 41.0 °F 96% 29.58 in 1.5 mi SSE 25.3 mph 32.2 mph 0.04 in Rain Rain
1:19 PM 42.1 °F 31.9 °F 41.0 °F 96% 29.57 in 2.0 mi SSE 26.5 mph 35.7 mph 0.04 in Rain Rain
1:31 PM 42.1 °F 32.3 °F 42.1 °F 100% 29.56 in 3.0 mi SSE 24.2 mph - 0.05 in Rain Light Rain
1:53 PM 43.0 °F 32.9 °F 42.1 °F 97% 29.57 in 4.0 mi SSE 27.6 mph 34.5 mph 0.06 in Rain Light Rain
2:17 PM 44.1 °F 35.2 °F 43.0 °F 96% 29.54 in 3.0 mi SSE 23.0 mph 36.8 mph 0.02 in Rain Light Rain
2:35 PM 44.1 °F 35.7 °F 43.0 °F 96% 29.53 in 5.0 mi SSE 20.7 mph 28.8 mph 0.03 in Rain Light Rain
2:53 PM 44.1 °F 35.9 °F 43.0 °F 96% 29.53 in 6.0 mi SSE 19.6 mph 27.6 mph 0.03 in Rain Light Rain
3:53 PM 45.0 °F 37.6 °F 44.1 °F 97% 29.50 in 3.0 mi South 17.3 mph 26.5 mph 0.00 in Rain Light Rain
4:00 PM 45.0 °F 37.6 °F 44.1 °F 97% 29.48 in 2.0 mi South 17.3 mph 27.6 mph 0.00 in Rain Light Rain
4:06 PM 45.0 °F 38.5 °F 45.0 °F 100% 29.47 in 1.2 mi South 13.8 mph 24.2 mph 0.00 in Rain Light Rain
4:17 PM 45.0 °F 37.9 °F 45.0 °F 100% 29.47 in 0.8 mi SSE 16.1 mph - 0.00 in Rain Light Rain
4:53 PM 46.0 °F 39.6 °F 45.0 °F 96% 29.47 in 0.5 mi South 15.0 mph 26.5 mph 0.00 in Fog Fog
5:53 PM 46.9 °F - 46.9 °F 100% 29.45 in 0.5 mi SSE 13.8 mph - N/A Fog Fog
6:53 PM 48.0 °F - 48.0 °F 100% 29.42 in 0.2 mi SSE 10.4 mph - N/A Fog Fog
7:53 PM 48.9 °F - 48.9 °F 100% 29.40 in 0.2 mi South 10.4 mph - 0.00 in Fog Fog
8:53 PM 51.1 °F - 50.0 °F 96% 29.37 in 0.2 mi South 12.7 mph 20.7 mph N/A Fog Fog
9:53 PM 51.1 °F - 51.1 °F 100% 29.36 in 0.5 mi South 13.8 mph 26.5 mph N/A Fog Fog
10:18 PM 51.1 °F - 51.1 °F 100% 29.35 in 1.2 mi South 15.0 mph 25.3 mph N/A   Overcast
10:37 PM 51.1 °F - 51.1 °F 100% 29.35 in 1.8 mi South 11.5 mph 20.7 mph N/A   Overcast
10:48 PM 51.8 °F - 51.8 °F 100% 29.36 in 1.2 mi South 10.4 mph - N/A   Overcast
10:53 PM 51.1 °F - 51.1 °F 100% 29.37 in 1.0 mi South 9.2 mph - N/A   Mist
11:00 PM 51.1 °F - 51.1 °F 100% 29.36 in 0.5 mi South 9.2 mph - N/A Fog Fog
11:21 PM 51.1 °F - 50.0 °F 96% 29.37 in 1.8 mi SSW 15.0 mph 26.5 mph N/A   Overcast
11:23 PM 51.1 °F - 50.0 °F 96% 29.37 in 4.0 mi SSW 12.7 mph 26.5 mph N/A   Overcast
11:31 PM 51.1 °F - 50.0 °F 96% 29.37 in 10.0 mi South 10.4 mph - 0.00 in Rain Light Rain
11:53 PM 50.0 °F - 48.9 °F 96% 29.39 in 10.0 mi SSW 11.5 mph 18.4 mph 0.00 in Rain Light Rain